Home   Weather   Neu-Ulm   Past weeks

Flag for Germany Past Weather in Neu-Ulm, Bavaria, Germany — Yesterday and Last 2 Weeks

Now
61 °F

Drizzle. Partly sunny.


Feels Like: 61 °F
Forecast: 54 / 63 °F
Wind: 3 mph from West

Location: Laupheim Airport

Current Time: Jul 24, 2017 at 8:59:37 am

Latest Report: Jul 24, 2017 at 8:20 am


Visibility: N/A

Pressure: 29.83 "Hg

Humidity: 88%

Dew Point: 57 °F

Location of Neu-UlmLocation

Past Weather in Neu-Ulm — Graph

°F

Neu-Ulm Temperature Yesterday

Maximum temperature yesterday: 70 °F (at 3:20 pm)
Minimum temperature yesterday: 61 °F (at 2:20 am)
Average temperature yesterday: 65 °F

High & Low Weather Summary for the Past Weeks

 TemperatureHumidityPressure
High86 °F (Jul 19, 3:20 pm)100% (Jul 9, 11:20 pm)30.30 "Hg (Jul 9, 11:20 pm)
Low50 °F (Jul 16, 4:20 am)35% (Jul 19, 6:20 pm)29.83 "Hg (Jul 24, 7:20 am)
Average66 °F71%30.05 "Hg
* Reported Jul 9 7:20 am — Jul 24 7:20 am, Neu-Ulm. Weather by CustomWeather, © 2017

Note: Actual official high and low records may vary slightly from our data, if they occured in-between our weather recording intervals... More about our weather records

Advertising

Neu-Ulm Weather History for the Previous 24 Hours

Scroll right to see more
 ConditionsComfort  
Time TempWeatherWind HumidityBarometerVisibility
7:20 am
Mon, Jul 24
61 °FPartly sunny.2 mph83%29.83 "HgN/A
6:20 am57 °FPartly sunny.1 mph88%29.86 "HgN/A
5:20 am59 °FPassing clouds.1 mph77%29.89 "HgN/A
4:20 am61 °FPassing clouds.2 mph77%29.92 "HgN/A
3:20 am61 °FMostly cloudy.1 mph72%29.95 "HgN/A
2:20 am61 °FPassing clouds.2 mph72%29.98 "HgN/A
1:20 am61 °FPassing clouds.2 mph77%30.01 "HgN/A
12:20 am63 °FPassing clouds.2 mph68%30.01 "HgN/A
11:20 pm
Sun, Jul 23
63 °FPassing clouds.3 mph77%30.04 "HgN/A
10:20 pm64 °FPassing clouds.3 mph68%30.04 "HgN/A
9:20 pm64 °FPassing clouds.3 mph68%30.04 "HgN/A
8:20 pm66 °FBroken clouds.5 mph60%30.04 "HgN/A
7:20 pm68 °FBroken clouds.6 mph60%30.04 "HgN/A
6:20 pm68 °FBroken clouds.3 mph60%30.04 "HgN/A
5:20 pm68 °FScattered clouds.5 mph60%30.07 "HgN/A
4:20 pm70 °FScattered clouds.12 mph57%30.07 "HgN/A
3:20 pm70 °FPartly sunny.9 mph57%30.09 "HgN/A
2:20 pm66 °FPartly sunny.10 mph60%30.09 "HgN/A
1:20 pm66 °FPartly sunny.15 mph60%30.09 "HgN/A
12:20 pm64 °FPartly sunny.12 mph68%30.09 "HgN/A
11:20 am66 °FPartly sunny.13 mph68%30.09 "HgN/A
10:20 am66 °FPartly sunny.13 mph73%30.09 "HgN/A
9:20 am64 °FBroken clouds.10 mph88%30.07 "HgN/A
8:20 am63 °FPartly sunny.9 mph94%30.07 "HgN/A
Weather by CustomWeather, © 2017

See weather overviewHow to use our weather pages